Printer-friendly version

IAU Minor Planet Center

Minor Planet Center

MPEC 2008-E69 : 2008 EB8

The following Minor Planet Electronic Circular may be linked-to from your own Web pages, but must not otherwise be redistributed electronically.


Read MPEC 2008-E68 Read MPEC 2008-E70


M.P.E.C. 2008-E69                                Issued 2008 Mar. 8, 17:12 UT

     The Minor Planet Electronic Circulars contain information on unusual
         minor planets and routine data on comets.  They are published
   on behalf of Commission 20 of the International Astronomical Union by the
          Minor Planet Center, Smithsonian Astrophysical Observatory,
                          Cambridge, MA 02138, U.S.A.

             Prepared using the Tamkin Foundation Computer Network

                              MPC@CFA.HARVARD.EDU
          URL http://www.cfa.harvard.edu/iau/mpc.html  ISSN 1523-6714

                                   2008 EB8

Observations:
     K08E08B* C2008 03 06.37935 11 45 32.14 +13 32 38.9          21.9 V EE069G96
     K08E08B  C2008 03 06.38598 11 45 30.67 +13 32 17.4          21.8 V EE069G96
     K08E08B  C2008 03 06.39262 11 45 29.30 +13 31 56.3          21.6 V EE069G96
     K08E08B  C2008 03 06.39918 11 45 27.86 +13 31 35.2          21.9 V EE069G96
     K08E08B  C2008 03 06.43390 11 45 20.35 +13 29 41.9          21.7 V EE069G96
     K08E08B  C2008 03 06.44010 11 45 19.03 +13 29 21.4          21.9 V EE069G96
     K08E08B  C2008 03 06.44623 11 45 17.73 +13 29 01.8          21.8 V EE069G96
     K08E08B  C2008 03 06.45229 11 45 16.44 +13 28 42.4          21.9 V EE069G96
     K08E08B  C2008 03 08.25383 11 39 11.23 +11 52 06.6          21.3 V EE069G96
     K08E08B  C2008 03 08.25880 11 39 10.22 +11 51 51.0          21.3 V EE069G96
     K08E08B  C2008 03 08.26387 11 39 09.14 +11 51 34.7          21.0 V EE069G96
     K08E08B  C2008 03 08.26882 11 39 08.10 +11 51 19.2          21.6 V EE069G96
     K08E08B  C2008 03 08.30339 11 39 01.02 +11 49 30.5          21.2 V EE069G96
     K08E08B  C2008 03 08.31071 11 38 59.46 +11 49 07.3          21.2 V EE069G96
     K08E08B  C2008 03 08.31825 11 38 57.78 +11 48 41.7          21.2 V EE069G96
     K08E08B  C2008 03 08.32557 11 38 56.21 +11 48 18.6          21.2 V EE069G96
     K08E08B  C2008 03 08.34265 11 38 52.68 +11 47 24.0          21.0 V EE069G96
     K08E08B  C2008 03 08.34876 11 38 51.36 +11 47 04.0          21.0 V EE069G96
     K08E08B  C2008 03 08.35490 11 38 50.11 +11 46 44.5          20.9 V EE069G96
     K08E08B  C2008 03 08.36108 11 38 48.79 +11 46 25.7          20.9 V EE069G96

Observer details:
G96 Mt. Lemmon Survey.  Observers A. Boattini, A. D.  Grauer.  Measurers
    E. C. Beshore, A. Boattini, G. J. Garradd, A. R. Gibbs, A. D. Grauer,
    R. E. Hill, R. A. Kowalski, S. M. Larson, R. H. McNaught.  1.5-m reflector
    + CCD.

Orbital elements:
2008 EB8                                                 Earth MOID = 0.3069 AU
Epoch 2008 May 14.0 TT = JDT 2454600.5                  MPC
M  51.53013              (2000.0)            P               Q
n   0.38773126     Peri.  119.26771     -0.40040015     -0.91539117
a   1.8625824      Node   353.87359     +0.64482750     -0.24913808
e   0.3687927      Incl.   22.99890     +0.65105853     -0.31621071
P   2.54           H   22.6           G   0.15           U   9
Residuals in seconds of arc
080306 G96  0.1+  0.4-    080306 G96  0.2+  0.4+    080308 G96  0.1-  0.3-
080306 G96  0.5-  0.3-    080308 G96  0.5-  0.5-    080308 G96  0.6-  0.0
080306 G96  0.5+  0.1+    080308 G96  0.1-  0.3-    080308 G96  0.1+  0.1-
080306 G96  0.1+  0.4+    080308 G96  0.4-  0.4-    080308 G96  0.5-  0.6-
080306 G96  0.3-  0.0     080308 G96  0.5-  0.2-    080308 G96  0.0   0.5-
080306 G96  0.1-  0.3-    080308 G96  1.8+  1.2+    080308 G96  0.4-  0.4+
080306 G96  0.1+  0.1+    080308 G96  1.4+  1.3+

Ephemeris:
2008 EB8                 a,e,i = 1.86, 0.37, 23                  q = 1.1757
Date    TT    R. A. (2000) Decl.     Delta      r     Elong.  Phase     V
2008 03 05    11 50.35   +14 47.6    0.331    1.315   165.6    10.8    21.5
2008 03 07    11 43.41   +12 59.4    0.335    1.323   168.9     8.3    21.4
2008 03 09    11 36.71   +11 12.8    0.341    1.331   171.9     6.0    21.4
2008 03 11    11 30.27   +09 28.5    0.347    1.340   174.1     4.4    21.3
2008 03 13    11 24.15   +07 47.3    0.355    1.348   174.6     4.0    21.4
2008 03 15    11 18.38   +06 09.8    0.364    1.357   173.2     5.0    21.5
2008 03 17    11 12.97   +04 36.4    0.374    1.365   170.7     6.8    21.6
2008 03 19    11 07.95   +03 07.5    0.385    1.374   167.9     8.7    21.8
2008 03 21    11 03.31   +01 43.3    0.396    1.383   165.1    10.7    22.0
2008 03 23    10 59.07   +00 23.9    0.409    1.392   162.3    12.6    22.1
2008 03 25    10 55.21   -00 50.7    0.423    1.401   159.6    14.4    22.3

Gareth V. Williams           (C) Copyright 2008 MPC           M.P.E.C. 2008-E69

Read MPEC 2008-E68 Read MPEC 2008-E70


Our Web policy. Index to the CBAT/MPC/ICQ pages.


Valid HTML 4.01!